TimeCST,TemperatureF,Dew PointF,Humidity,Sea Level PressureIn,VisibilityMPH,Wind Direction,Wind SpeedMPH,Gust SpeedMPH,PrecipitationIn,Events,Conditions,WindDirDegrees,DateUTC
12:08 AM,28.4,23.0,80,29.17,10.0,WSW,9.2,-,N/A,,Overcast,250,2001-01-30 06:08:00
12:29 AM,28.4,21.2,74,29.17,10.0,West,8.1,-,N/A,,Mostly Cloudy,260,2001-01-30 06:29:00
12:48 AM,26.6,21.2,80,29.16,10.0,WSW,6.9,-,N/A,,Overcast,240,2001-01-30 06:48:00
1:09 AM,26.6,21.2,80,29.15,5.0,WSW,8.1,-,N/A,,Overcast,240,2001-01-30 07:09:00
1:29 AM,26.6,21.2,80,29.15,4.0,WSW,10.4,-,N/A,,Overcast,250,2001-01-30 07:29:00
1:51 AM,26.6,21.2,80,29.16,4.0,WSW,10.4,-,N/A,,Overcast,250,2001-01-30 07:51:00
2:08 AM,26.6,21.2,80,29.16,5.0,West,9.2,-,N/A,,Overcast,260,2001-01-30 08:08:00
2:31 AM,26.6,21.2,80,29.17,7.0,WSW,8.1,-,N/A,,Overcast,250,2001-01-30 08:31:00
2:48 AM,26.6,21.2,80,29.17,7.0,West,8.1,-,N/A,,Overcast,260,2001-01-30 08:48:00
3:09 AM,28.4,21.2,74,29.17,10.0,West,11.5,-,N/A,,Overcast,260,2001-01-30 09:09:00
3:27 AM,28.4,23.0,80,29.17,10.0,West,9.2,-,N/A,,Overcast,270,2001-01-30 09:27:00
4:29 AM,28.4,23.0,80,29.18,10.0,West,12.7,-,N/A,,Overcast,280,2001-01-30 10:29:00
4:52 AM,28.4,23.0,80,29.19,10.0,WNW,11.5,-,N/A,,Overcast,290,2001-01-30 10:52:00
5:15 AM,28.4,23.0,80,29.19,10.0,WNW,12.7,-,N/A,,Overcast,290,2001-01-30 11:15:00
5:27 AM,28.4,23.0,80,29.20,10.0,WNW,12.7,-,N/A,,Overcast,290,2001-01-30 11:27:00
5:51 AM,28.4,24.8,86,29.21,10.0,WNW,11.5,-,N/A,,Overcast,290,2001-01-30 11:51:00
6:07 AM,30.2,24.8,80,29.22,10.0,WNW,13.8,-,N/A,,Overcast,290,2001-01-30 12:07:00
6:29 AM,30.2,24.8,80,29.23,10.0,WNW,15.0,-,N/A,,Overcast,290,2001-01-30 12:29:00
6:47 AM,30.2,24.8,80,29.24,10.0,WNW,16.1,20.7,N/A,,Overcast,300,2001-01-30 12:47:00
7:10 AM,30.2,24.8,80,29.26,10.0,WNW,16.1,-,N/A,,Overcast,300,2001-01-30 13:10:00
7:32 AM,30.2,24.8,80,29.27,10.0,WNW,15.0,-,N/A,,Overcast,300,2001-01-30 13:32:00
7:53 AM,30.2,24.8,80,29.28,10.0,NW,17.3,-,N/A,,Overcast,310,2001-01-30 13:53:00
8:15 AM,30.2,24.8,80,29.29,10.0,NW,16.1,-,N/A,,Overcast,310,2001-01-30 14:15:00
8:38 AM,30.2,24.8,80,29.31,10.0,WNW,16.1,-,N/A,,Overcast,300,2001-01-30 14:38:00
8:50 AM,30.2,24.8,80,29.32,10.0,WNW,20.7,-,N/A,,Overcast,300,2001-01-30 14:50:00
9:32 AM,30.2,24.8,80,29.33,10.0,NW,20.7,-,N/A,,Overcast,310,2001-01-30 15:32:00
9:50 AM,30.2,24.8,80,29.34,10.0,NW,17.3,26.5,N/A,,Overcast,310,2001-01-30 15:50:00
10:12 AM,30.2,24.8,80,29.34,10.0,NW,23.0,28.8,N/A,,Mostly Cloudy,310,2001-01-30 16:12:00
10:30 AM,30.2,24.8,80,29.35,10.0,NW,21.9,-,N/A,,Overcast,320,2001-01-30 16:30:00
10:52 AM,30.2,24.8,80,29.36,10.0,NW,25.3,29.9,N/A,,Mostly Cloudy,320,2001-01-30 16:52:00
11:30 AM,32.0,24.8,75,29.38,10.0,NW,19.6,26.5,N/A,,Mostly Cloudy,310,2001-01-30 17:30:00
11:52 AM,33.8,24.8,70,29.40,10.0,NW,26.5,29.9,0.01,,Mostly Cloudy,320,2001-01-30 17:52:00
12:10 PM,33.8,26.6,75,29.41,10.0,NW,20.7,-,N/A,,Overcast,310,2001-01-30 18:10:00
12:32 PM,33.8,26.6,75,29.42,10.0,NW,23.0,27.6,0.01,,Overcast,310,2001-01-30 18:32:00
12:50 PM,33.8,24.8,70,29.43,10.0,WNW,26.5,31.1,0.01,,Overcast,300,2001-01-30 18:50:00
1:12 PM,33.8,24.8,70,29.43,10.0,NW,25.3,32.2,N/A,,Overcast,320,2001-01-30 19:12:00
1:33 PM,32.0,24.8,75,29.45,7.0,NW,21.9,29.9,N/A,,Overcast,310,2001-01-30 19:33:00
1:50 PM,32.0,24.8,75,29.46,10.0,NW,25.3,31.1,N/A,,Overcast,310,2001-01-30 19:50:00
2:12 PM,32.0,24.8,75,29.47,10.0,NW,23.0,-,N/A,,Overcast,310,2001-01-30 20:12:00
2:30 PM,32.0,24.8,75,29.48,10.0,NW,23.0,-,N/A,,Overcast,310,2001-01-30 20:30:00
2:52 PM,32.0,24.8,75,29.49,10.0,NW,23.0,26.5,N/A,,Overcast,320,2001-01-30 20:52:00
3:10 PM,30.2,24.8,80,29.50,10.0,NW,19.6,27.6,N/A,,Overcast,320,2001-01-30 21:10:00
3:38 PM,32.0,24.8,75,29.53,10.0,NW,21.9,26.5,N/A,,Overcast,310,2001-01-30 21:38:00
3:50 PM,32.0,24.8,75,29.53,10.0,NW,20.7,24.2,N/A,,Overcast,320,2001-01-30 21:50:00
4:30 PM,32.0,24.8,75,29.57,10.0,NW,18.4,-,N/A,,Overcast,310,2001-01-30 22:30:00
5:13 PM,32.0,24.8,75,29.60,10.0,NW,23.0,-,N/A,,Overcast,320,2001-01-30 23:13:00
5:30 PM,30.2,24.8,80,29.62,10.0,NW,17.3,-,N/A,,Overcast,310,2001-01-30 23:30:00
5:58 PM,32.0,24.8,75,29.64,10.0,NW,17.3,-,N/A,,Overcast,320,2001-01-30 23:58:00
6:12 PM,32.0,24.8,75,29.64,10.0,NW,16.1,-,N/A,,Overcast,320,2001-01-31 00:12:00
6:52 PM,32.0,24.8,75,29.67,10.0,NW,18.4,-,N/A,,Overcast,320,2001-01-31 00:52:00
7:12 PM,32.0,24.8,75,29.68,10.0,NW,24.2,28.8,N/A,,Overcast,320,2001-01-31 01:12:00
7:50 PM,32.0,24.8,75,29.69,10.0,NW,26.5,34.5,N/A,,Overcast,320,2001-01-31 01:50:00
8:12 PM,30.2,24.8,80,29.71,7.0,NW,27.6,-,N/A,,Overcast,320,2001-01-31 02:12:00
8:30 PM,30.2,24.8,80,29.71,7.0,NW,28.8,35.7,N/A,,Overcast,320,2001-01-31 02:30:00
9:12 PM,30.2,24.8,80,29.74,10.0,NNW,25.3,32.2,N/A,,Overcast,330,2001-01-31 03:12:00
9:32 PM,30.2,24.8,80,29.75,10.0,NW,26.5,31.1,N/A,,Overcast,320,2001-01-31 03:32:00
9:53 PM,30.2,24.8,80,29.76,4.0,NNW,31.1,41.4,N/A,,Overcast,330,2001-01-31 03:53:00
10:10 PM,30.2,24.8,80,29.77,7.0,NNW,32.2,38.0,N/A,,Overcast,330,2001-01-31 04:10:00
10:32 PM,30.2,24.8,80,29.78,10.0,NNW,24.2,28.8,N/A,,Overcast,330,2001-01-31 04:32:00
10:50 PM,32.0,24.8,75,29.79,10.0,NNW,21.9,31.1,N/A,,Overcast,330,2001-01-31 04:50:00
11:11 PM,32.0,24.8,75,29.80,10.0,NNW,19.6,-,N/A,,Overcast,330,2001-01-31 05:11:00
11:52 PM,32.0,24.8,75,29.82,10.0,NNW,26.5,34.5,N/A,,Overcast,330,2001-01-31 05:52:00